User: anonymous   Login
Location: Frydek-Mistek
(49.6830°N, 18.3330°E)
Time: 18:04:21
(UTC+01:00)
Language:

Courier 1B Rocket - Orbit

View from above orbital plane
View from above orbital plane
View from above satellite
View from above satellite

Ground track
Ground track

The orbit data is extracted from the following two-line orbital elements,

1    59U 60013B   17344.89398033 +.00000114 +00000-0 +34702-4 0  9992
2    59 028.2480 261.7024 0189346 128.1883 233.5877 13.52956437821971
Epoch (UTC): 10 December 2017 21:27:19
Eccentricity: 0.0189346
inclination: 28.2480°
perigee height: 920 km
apogee height: 1202 km
right ascension of ascending node: 261.7024°
argument of perigee: 128.1883°
revolutions per day: 13.52956437
mean anomaly at epoch: 233.5877°
orbit number at epoch: 82197

The dashed part of the orbit path shows where the satellite is in the earth's shadow,  

DLR